Total_Precipitation_Accumulation
0.00 0.00 0.03 0.05 0.06 0.09 0.20 0.30 0.38 0.35 0.32 0.27 0.17 0.11 0.11 0.09 0.10 0.10 0.11 0.12 0.24 0.27 0.24 0.19 0.20 0.23 0.23 0.22 0.25 0.28 0.31 0.35 0.37 0.40 0.45 0.44 0.34 0.33 0.41 0.44 0.34 0.42 0.20
0.00 0.00 0.04 0.08 0.07 0.06 0.14 0.24 0.35 0.38 0.44 0.31 0.19 0.16 0.14 0.10 0.10 0.09 0.06 0.08 0.15 0.18 0.15 0.16 0.20 0.23 0.25 0.26 0.33 0.39 0.37 0.33 0.41 0.44 0.46 0.41 0.38 0.37 0.33 0.37 0.32 0.35 0.20
0.00 0.01 0.06 0.11 0.09 0.07 0.15 0.24 0.34 0.38 0.47 0.35 0.27 0.20 0.14 0.09 0.12 0.12 0.08 0.11 0.17 0.12 0.08 0.13 0.24 0.29 0.31 0.34 0.40 0.45 0.44 0.38 0.41 0.45 0.54 0.68 0.41 0.32 0.29 0.30 0.30 0.24 0.22
0.00 0.02 0.08 0.11 0.09 0.11 0.18 0.26 0.32 0.37 0.46 0.39 0.28 0.16 0.08 0.09 0.13 0.14 0.23 0.32 0.22 0.08 0.06 0.12 0.25 0.29 0.28 0.32 0.38 0.38 0.38 0.36 0.38 0.38 0.52 0.67 0.58 0.35 0.33 0.34 0.33 0.23 0.21
0.00 0.04 0.11 0.12 0.09 0.11 0.20 0.33 0.36 0.43 0.46 0.39 0.27 0.12 0.08 0.11 0.16 0.25 0.36 0.30 0.14 0.06 0.05 0.10 0.19 0.23 0.21 0.21 0.30 0.33 0.34 0.38 0.44 0.45 0.58 0.69 0.72 0.45 0.35 0.33 0.29 0.23 0.24
0.00 0.02 0.09 0.13 0.09 0.12 0.25 0.41 0.41 0.45 0.48 0.44 0.27 0.13 0.11 0.14 0.15 0.21 0.29 0.25 0.10 0.03 0.03 0.07 0.16 0.20 0.18 0.17 0.23 0.30 0.33 0.40 0.41 0.45 0.60 0.68 0.75 0.44 0.32 0.34 0.37 0.32 0.28
0.00 0.02 0.06 0.11 0.10 0.14 0.28 0.40 0.42 0.47 0.48 0.43 0.26 0.18 0.17 0.16 0.12 0.17 0.20 0.18 0.06 0.02 0.02 0.04 0.10 0.14 0.14 0.15 0.18 0.23 0.27 0.26 0.26 0.37 0.51 0.66 0.60 0.38 0.31 0.42 0.50 0.37 0.29
0.00 0.01 0.04 0.10 0.13 0.17 0.26 0.33 0.36 0.43 0.46 0.41 0.25 0.20 0.20 0.18 0.15 0.15 0.16 0.12 0.04 0.02 0.02 0.02 0.06 0.09 0.10 0.12 0.16 0.19 0.20 0.15 0.14 0.23 0.36 0.54 0.51 0.39 0.32 0.43 0.53 0.45 0.38
0.01 0.01 0.04 0.07 0.08 0.17 0.25 0.30 0.31 0.34 0.38 0.40 0.27 0.20 0.21 0.17 0.11 0.10 0.09 0.04 0.01 0.01 0.01 0.02 0.03 0.03 0.05 0.11 0.13 0.16 0.14 0.09 0.10 0.12 0.19 0.36 0.40 0.32 0.25 0.33 0.41 0.41 0.43
0.02 0.01 0.01 0.03 0.05 0.09 0.12 0.21 0.29 0.31 0.32 0.38 0.28 0.21 0.19 0.11 0.07 0.06 0.03 0.02 0.00 0.00 0.00 0.01 0.01 0.01 0.04 0.10 0.11 0.10 0.09 0.07 0.07 0.08 0.14 0.20 0.26 0.23 0.18 0.21 0.25 0.28 0.30
0.01 0.00 0.00 0.01 0.02 0.05 0.09 0.11 0.23 0.27 0.31 0.35 0.30 0.25 0.20 0.18 0.10 0.05 0.03 0.03 0.01 0.01 0.01 0.02 0.03 0.03 0.03 0.07 0.06 0.04 0.04 0.07 0.05 0.08 0.11 0.14 0.18 0.18 0.16 0.13 0.16 0.18 0.21
0.00 0.00 0.00 0.00 0.00 0.01 0.05 0.16 0.25 0.25 0.18 0.22 0.37 0.33 0.23 0.23 0.17 0.03 0.02 0.03 0.03 0.02 0.01 0.03 0.04 0.02 0.01 0.01 0.01 0.01 0.02 0.03 0.03 0.07 0.09 0.17 0.17 0.12 0.10 0.09 0.08 0.09 0.12
0.00 0.00 0.00 0.00 0.00 0.01 0.08 0.17 0.29 0.38 0.35 0.30 0.29 0.27 0.20 0.10 0.03 0.02 0.04 0.05 0.05 0.04 0.02 0.02 0.01 0.00 0.00 0.00 0.00 0.01 0.02 0.02 0.05 0.07 0.10 0.23 0.28 0.19 0.11 0.08 0.06 0.05 0.07
0.00 0.00 0.01 0.00 0.00 0.01 0.01 0.05 0.13 0.19 0.28 0.30 0.16 0.11 0.08 0.05 0.03 0.02 0.03 0.05 0.05 0.05 0.03 0.00 0.00 0.00 0.00 0.00 0.02 0.04 0.02 0.02 0.09 0.15 0.19 0.35 0.48 0.31 0.19 0.13 0.11 0.09 0.10
0.00 0.01 0.02 0.03 0.04 0.04 0.02 0.02 0.02 0.09 0.18 0.23 0.19 0.12 0.07 0.02 0.03 0.01 0.01 0.02 0.02 0.02 0.01 0.00 0.00 0.00 0.00 0.01 0.04 0.06 0.04 0.04 0.12 0.16 0.26 0.44 0.68 0.68 0.43 0.27 0.17 0.12 0.13
0.01 0.04 0.05 0.05 0.07 0.05 0.03 0.01 0.01 0.04 0.11 0.16 0.18 0.11 0.06 0.02 0.02 0.01 0.01 0.01 0.01 0.02 0.03 0.01 0.00 0.00 0.00 0.00 0.02 0.02 0.03 0.04 0.07 0.13 0.28 0.43 0.52 0.61 0.68 0.57 0.40 0.30 0.20
0.01 0.03 0.02 0.01 0.01 0.01 0.02 0.01 0.01 0.01 0.04 0.11 0.15 0.11 0.07 0.02 0.02 0.02 0.02 0.05 0.05 0.02 0.01 0.01 0.02 0.01 0.00 0.01 0.01 0.01 0.01 0.02 0.03 0.06 0.13 0.24 0.24 0.23 0.40 0.54 0.54 0.47 0.37
0.01 0.01 0.01 0.00 0.00 0.00 0.01 0.02 0.03 0.03 0.07 0.16 0.17 0.14 0.14 0.05 0.04 0.05 0.07 0.11 0.13 0.05 0.02 0.02 0.04 0.02 0.02 0.01 0.01 0.01 0.00 0.00 0.01 0.02 0.04 0.07 0.09 0.10 0.16 0.17 0.19 0.24 0.34
0.03 0.02 0.02 0.04 0.03 0.05 0.05 0.06 0.11 0.14 0.21 0.34 0.33 0.33 0.33 0.18 0.12 0.15 0.21 0.20 0.17 0.14 0.11 0.07 0.06 0.04 0.05 0.04 0.02 0.02 0.00 0.00 0.01 0.01 0.02 0.02 0.02 0.05 0.09 0.04 0.03 0.03 0.04
0.04 0.03 0.05 0.11 0.16 0.23 0.31 0.43 0.57 0.61 0.76 0.98 0.91 0.74 0.54 0.37 0.32 0.38 0.42 0.37 0.29 0.34 0.38 0.19 0.16 0.13 0.11 0.06 0.03 0.02 0.01 0.00 0.00 0.00 0.01 0.00 0.00 0.00 0.01 0.01 0.01 0.01 0.00
0.04 0.03 0.06 0.08 0.15 0.26 0.44 0.71 1.05 1.20 1.23 1.20 1.21 1.04 0.81 0.60 0.62 0.71 0.69 0.65 0.59 0.61 0.56 0.43 0.43 0.34 0.21 0.09 0.12 0.12 0.04 0.01 0.01 0.00 0.00 0.00 0.00 0.00 0.00 0.00 0.00 0.01 0.01
0.04 0.03 0.07 0.09 0.15 0.28 0.49 0.73 1.01 1.19 1.14 1.11 1.13 1.08 0.96 0.83 0.83 0.87 0.97 1.01 0.94 0.99 0.96 0.81 0.84 0.76 0.49 0.27 0.32 0.43 0.26 0.12 0.03 0.00 0.00 0.00 0.00 0.00 0.00 0.00 0.00 0.00 0.01
0.06 0.05 0.08 0.12 0.23 0.43 0.68 0.92 1.02 1.14 1.13 1.11 1.07 1.09 1.07 0.99 0.92 0.94 1.04 1.09 1.02 1.04 1.13 1.16 1.10 1.06 0.84 0.54 0.39 0.45 0.45 0.39 0.20 0.05 0.01 0.00 0.00 0.00 0.00 0.00 0.00 0.00 0.00
0.06 0.07 0.09 0.14 0.30 0.56 0.80 0.93 1.04 1.21 1.22 1.05 0.99 0.99 0.98 0.97 0.98 1.02 1.02 1.09 1.06 1.00 1.07 1.14 1.09 1.13 1.10 0.84 0.61 0.44 0.35 0.35 0.29 0.18 0.07 0.02 0.01 0.01 0.00 0.00 0.00 0.00 0.00
0.06 0.08 0.14 0.26 0.42 0.63 0.78 0.95 1.14 1.23 1.15 1.02 0.89 0.91 0.90 0.94 0.97 0.98 0.99 1.09 1.09 1.01 0.94 1.10 1.13 1.19 1.12 1.04 0.88 0.74 0.63 0.52 0.30 0.28 0.26 0.11 0.04 0.02 0.01 0.01 0.01 0.00 0.00
0.12 0.17 0.24 0.37 0.52 0.69 0.83 0.96 1.02 1.14 1.15 1.10 0.96 0.89 0.89 0.91 1.01 0.94 0.87 0.95 0.95 0.93 0.93 1.01 1.09 1.18 1.16 1.17 1.02 0.80 0.72 0.63 0.49 0.42 0.36 0.27 0.15 0.04 0.02 0.01 0.01 0.01 0.00